Overview Statistics Trail Chart Weather Telemetry Raw packets
 

This is the latest recevied weather packets stored in our database for station/object KH6DH-13. If no packets are shown the sender has not sent any weather packets the latest 10 day(s).

<< 44 45 46 47 48 49 50 >>
Time Temp. Humidity Pressure Rain* Wind** Luminosity Snow
1787995651 25° C - - 0.25 mm 0.45 m/s, 308° - -
1787995050 25° C - - 0.25 mm 0.89 m/s, 0° - -
1787994449 25° C - - 0.25 mm 0.45 m/s, 35° - -
1787993848 25° C - - 0.25 mm 0.89 m/s, 107° - -
1787993247 25° C - - 0.25 mm 0 m/s - -
1787992646 25° C - - 0.25 mm 0.45 m/s, 290° - -
1787992045 25° C - - 0 mm 0.45 m/s, 8° - -
1787991444 25° C - - 0 mm 0.45 m/s, 249° - -
1787990843 25° C - - 0 mm 1.34 m/s, 342° - -
1787990242 25.56° C - - 0 mm 0.45 m/s, 75° - -
1787989641 25.56° C - - 0 mm 0 m/s - -
1787989040 25.56° C - - 0 mm 0.45 m/s, 158° - -
1787988439 25.56° C - - 0 mm 0.45 m/s, 269° - -
1787987838 25.56° C - - 0 mm 0.45 m/s, 143° - -
1787987237 25.56° C - - 0 mm 1.79 m/s, 44° - -
1787986636 26.11° C - - 0 mm 0 m/s - -
1787986035 26.11° C - - 0 mm 0.45 m/s, 83° - -
1787985434 26.11° C - - 0 mm 0.45 m/s, 339° - -
1787984833 26.11° C - - 0 mm 1.34 m/s, 13° - -
1787984232 26.11° C - - 0 mm 1.34 m/s, 246° - -
1787983631 26.11° C - - 0 mm 0.45 m/s, 338° - -
1787983030 26.67° C - - 0 mm 2.24 m/s, 152° - -
1787982429 26.67° C - - 0 mm 0.45 m/s, 13° - -
1787981828 26.67° C - - 0 mm 0.45 m/s, 240° - -
1787981225 26.67° C - - 0 mm 0.45 m/s, 37° - -

* Rain latest hour (hover to see other rain measurements)
** Current wind speed in m/s (hover to see current wind gust speed)